User: anonymous   Login
Location: Albany
(35.0000°S, 118.0000°E)
Time: 16:10:20
(UTC-04:00)
Language:

Atlas Centaur 2 - Orbit

View from above orbital plane
View from above orbital plane
View from above satellite
View from above satellite

Ground track
Ground track

The orbit data is extracted from the following two-line orbital elements,

1   694U 63047A   16237.80598920 +.00000287 +00000-0 +24513-4 0  9995
2   694 030.3596 355.1333 0588910 340.6819 017.2296 14.01839246641479
Epoch (UTC): 24 August 2016 19:20:37
Eccentricity: 0.0588910
inclination: 30.3596°
perigee height: 459 km
apogee height: 1315 km
right ascension of ascending node: 355.1333°
argument of perigee: 340.6819°
revolutions per day: 14.01839246
mean anomaly at epoch: 17.2296°
orbit number at epoch: 64147

The dashed part of the orbit path shows where the satellite is in the earth's shadow,  

DLR